| time (UTC) | temp F | wind direction | speed MPH | gust MPH | rain 1hr in | rain 24hr in | rain mn in | humidity % | barometer mb |
| 20260831030022 | 70 | 119 | 3.0 | 8.0 | 0.00 | 0.26 | 0.00 | 98 | 1014.4 |
| 20260831024522 | 70 | 107 | 3.0 | 7.0 | 0.00 | 0.26 | 0.00 | 99 | 1014.6 |
| 20260831023021 | 70 | 113 | 4.0 | 7.0 | 0.00 | 0.26 | 0.00 | 99 | 1014.5 |
| 20260831021522 | 70 | 131 | 2.0 | 7.0 | 0.00 | 0.26 | 0.00 | 99 | 1014.6 |
| 20260831020020 | 70 | 103 | 3.0 | 7.0 | 0.00 | 0.28 | 0.00 | 99 | 1014.6 |
| 20260831014519 | 70 | 97 | 1.0 | 4.0 | 0.00 | 0.28 | 0.00 | 98 | 1014.4 |
| 20260831013020 | 70 | 92 | 1.0 | 6.0 | 0.00 | 0.28 | 0.00 | 98 | 1014.3 |
| 20260831011521 | 70 | 84 | 2.0 | 6.0 | 0.00 | 0.28 | 0.00 | 97 | 1014.0 |
| 20260831010018 | 70 | 94 | 2.0 | 6.0 | 0.00 | 0.30 | 0.00 | 97 | 1014.0 |
| 20260831004518 | 70 | 107 | 2.0 | 6.0 | 0.00 | 0.30 | 0.00 | 97 | 1013.9 |
| 20260831003020 | 70 | 119 | 1.0 | 4.0 | 0.00 | 0.30 | 0.00 | 98 | 1014.0 |
| 20260831001517 | 70 | 120 | 1.0 | 6.0 | 0.00 | 0.30 | 0.00 | 98 | 1013.9 |
| 20260831000021 | 70 | 104 | 2.0 | 4.0 | 0.00 | 0.31 | 0.00 | 98 | 1013.8 |
| 20260830234516 | 70 | 105 | 0.0 | 3.0 | 0.00 | 0.31 | 0.00 | 97 | 1014.1 |
| 20260830233016 | 70 | 105 | 0.0 | 3.0 | 0.00 | 0.31 | 0.00 | 97 | 1013.9 |
| 20260830231517 | 70 | 126 | 2.0 | 4.0 | 0.00 | 0.31 | 0.00 | 97 | 1014.0 |
| 20260830230015 | 71 | 130 | 1.0 | 7.0 | 0.00 | 0.32 | 0.00 | 97 | 1014.0 |
| 20260830224515 | 71 | 119 | 1.0 | 4.0 | 0.00 | 0.32 | 0.00 | 97 | 1013.9 |
| 20260830223014 | 71 | 134 | 0.0 | 3.0 | 0.00 | 0.32 | 0.00 | 97 | 1013.8 |
| 20260830221513 | 71 | 136 | 1.0 | 3.0 | 0.00 | 0.32 | 0.00 | 96 | 1014.0 |
| 20260830220013 | 70 | 78 | 0.0 | 3.0 | 0.00 | 0.32 | 0.00 | 96 | 1014.0 |
| 20260830214513 | 70 | 78 | 1.0 | 2.0 | 0.00 | 0.32 | 0.00 | 96 | 1014.4 |
| 20260830213012 | 70 | 78 | 1.0 | 4.0 | 0.00 | 0.32 | 0.00 | 95 | 1014.4 |
| 20260830211511 | 71 | 115 | 1.0 | 2.0 | 0.00 | 0.32 | 0.00 | 94 | 1014.4 |
| 20260830210011 | 72 | 117 | 2.0 | 4.0 | 0.00 | 0.32 | 0.00 | 93 | 1014.2 |
| 20260830204517 | 72 | 123 | 1.0 | 4.0 | 0.00 | 0.32 | 0.00 | 92 | 1014.0 |
| 20260830203013 | 72 | 123 | 1.0 | 6.0 | 0.00 | 0.32 | 0.00 | 92 | 1014.0 |
| 20260830201509 | 72 | 98 | 1.0 | 3.0 | 0.00 | 0.32 | 0.00 | 92 | 1013.9 |
| 20260830200008 | 72 | 98 | 1.0 | 4.0 | 0.00 | 0.32 | 0.00 | 92 | 1014.0 |
| 20260830194508 | 72 | 98 | 2.0 | 4.0 | 0.00 | 0.32 | 0.00 | 91 | 1014.0 |
| 20260830193015 | 73 | 138 | 1.0 | 4.0 | 0.00 | 0.32 | 0.00 | 89 | 1014.0 |
| 20260830191520 | 73 | 111 | 4.0 | 7.0 | 0.00 | 0.32 | 0.00 | 88 | 1014.0 |
| 20260830190006 | 74 | 128 | 2.0 | 5.0 | 0.00 | 0.32 | 0.00 | 89 | 1013.9 |
| 20260830184506 | 74 | 111 | 3.0 | 6.0 | 0.00 | 0.32 | 0.00 | 88 | 1013.9 |
| 20260830183005 | 75 | 163 | 1.0 | 5.0 | 0.00 | 0.32 | 0.00 | 86 | 1014.0 |
| 20260830181503 | 75 | 207 | 1.0 | 3.0 | 0.00 | 0.32 | 0.00 | 86 | 1014.1 |
| 20260830180005 | 74 | 215 | 0.0 | 3.0 | 0.00 | 0.32 | 0.00 | 87 | 1014.1 |
| 20260830174612 | 74 | 218 | 0.0 | 2.0 | 0.00 | 0.32 | 0.00 | 88 | 1014.0 |
| 20260830173058 | 74 | 226 | 1.0 | 4.0 | 0.00 | 0.32 | 0.00 | 87 | 1014.2 |
| 20260830171557 | 74 | 227 | 2.0 | 5.0 | 0.00 | 0.32 | 0.00 | 87 | 1014.3 |
| 20260830170056 | 74 | 214 | 0.0 | 3.0 | 0.00 | 0.32 | 0.00 | 87 | 1014.3 |
| 20260830164554 | 73 | 213 | 1.0 | 6.0 | 0.00 | 0.32 | 0.00 | 87 | 1014.3 |
| 20260830163051 | 74 | 249 | 2.0 | 6.0 | 0.00 | 0.32 | 0.00 | 87 | 1014.4 |
| 20260830161600 | 73 | 204 | 2.0 | 5.0 | 0.00 | 0.32 | 0.00 | 89 | 1014.3 |
| 20260830160042 | 71 | 213 | 1.0 | 8.0 | 0.00 | 0.32 | 0.00 | 92 | 1014.4 |
| 20260830154540 | 70 | 215 | 2.0 | 11.0 | 0.00 | 0.32 | 0.00 | 92 | 1014.5 |
| 20260830153037 | 70 | 240 | 3.0 | 9.0 | 0.00 | 0.32 | 0.00 | 93 | 1014.6 |
| 20260830151537 | 69 | 234 | 2.0 | 5.0 | 0.00 | 0.32 | 0.00 | 95 | 1014.6 |
| 20260830150104 | 68 | 227 | 0.0 | 3.0 | 0.00 | 0.32 | 0.00 | 98 | 1014.5 |
| 20260830144533 | 67 | 229 | 1.0 | 7.0 | 0.00 | 0.32 | 0.00 | 96 | 1014.6 |
| 20260830143035 | 67 | 219 | 2.0 | 6.0 | 0.00 | 0.32 | 0.00 | 96 | 1014.7 |
| 20260830141529 | 67 | 235 | 2.0 | 7.0 | 0.00 | 0.32 | 0.00 | 96 | 1014.6 |
| 20260830140028 | 67 | 261 | 1.0 | 6.0 | 0.00 | 0.32 | 0.00 | 96 | 1014.6 |
| 20260830134537 | 67 | 256 | 1.0 | 8.0 | 0.00 | 0.32 | 0.00 | 96 | 1014.6 |
| 20260830133027 | 67 | 273 | 1.0 | 7.0 | 0.00 | 0.32 | 0.00 | 97 | 1014.4 |
| 20260830131525 | 67 | 254 | 1.0 | 5.0 | 0.00 | 0.32 | 0.00 | 97 | 1014.3 |
| 20260830130023 | 66 | 240 | 1.0 | 5.0 | 0.00 | 0.32 | 0.00 | 98 | 1014.4 |
| 20260830124524 | 65 | 224 | 0.0 | 4.0 | 0.00 | 0.32 | 0.00 | 99 | 1014.4 |
| 20260830123018 | 65 | 255 | 1.0 | 4.0 | 0.00 | 0.32 | 0.00 | 99 | 1014.4 |
| 20260830121517 | 64 | 235 | 1.0 | 3.0 | 0.00 | 0.32 | 0.00 | 99 | 1014.3 |
| 20260830120021 | 64 | 235 | 0.0 | 2.0 | 0.00 | 0.32 | 0.00 | 99 | 1014.4 |
| 20260830114517 | 64 | 235 | 0.0 | 1.0 | 0.00 | 0.32 | 0.00 | 99 | 1014.3 |
| 20260830113018 | 64 | 235 | 1.0 | 2.0 | 0.00 | 0.32 | 0.00 | 99 | 1014.3 |
| 20260830111516 | 65 | 235 | 1.0 | 2.0 | 0.00 | 0.32 | 0.00 | 98 | 1014.1 |
| 20260830110015 | 65 | 235 | 0.0 | 3.0 | 0.00 | 0.32 | 0.00 | 97 | 1014.1 |
| 20260830104514 | 65 | 235 | 0.0 | 5.0 | 0.00 | 0.32 | 0.00 | 97 | 1014.2 |
| 20260830103013 | 65 | 230 | 0.0 | 5.0 | 0.00 | 0.32 | 0.00 | 97 | 1014.1 |
| 20260830101532 | 64 | 265 | 1.0 | 5.0 | 0.00 | 0.32 | 0.00 | 98 | 1014.2 |
| 20260830100010 | 64 | 239 | 1.0 | 3.0 | 0.00 | 0.32 | 0.00 | 98 | 1014.3 |
| 20260830094509 | 64 | 239 | 0.0 | 3.0 | 0.00 | 0.32 | 0.00 | 97 | 1014.4 |
| 20260830093010 | 64 | 239 | 1.0 | 4.0 | 0.00 | 0.32 | 0.00 | 97 | 1014.5 |
| 20260830091509 | 64 | 245 | 1.0 | 5.0 | 0.00 | 0.32 | 0.00 | 97 | 1014.4 |
| 20260830090020 | 64 | 238 | 1.0 | 8.0 | 0.00 | 0.32 | 0.00 | 97 | 1014.5 |
| 20260830084515 | 64 | 223 | 0.0 | 5.0 | 0.00 | 0.32 | 0.00 | 97 | 1014.8 |
| 20260830083007 | 64 | 278 | 5.0 | 10.0 | 0.00 | 0.32 | 0.00 | 98 | 1015.0 |
| 20260830081502 | 64 | 274 | 1.0 | 4.0 | 0.00 | 0.32 | 0.00 | 98 | 1015.1 |
| 20260830074618 | 64 | 259 | 4.0 | 10.0 | 0.00 | 0.32 | 0.00 | 98 | 1015.3 |
| 20260830073057 | 64 | 232 | 0.0 | 5.0 | 0.00 | 0.32 | 0.00 | 99 | 1015.3 |
| 20260830071600 | 63 | 176 | 0.0 | 4.0 | 0.00 | 0.32 | 0.00 | 99 | 1015.6 |
| 20260830070053 | 63 | 175 | 0.0 | 3.0 | 0.00 | 0.32 | 0.00 | 99 | 1015.8 |
| 20260830064551 | 64 | 177 | 1.0 | 3.0 | 0.00 | 0.32 | 0.00 | 99 | 1016.2 |
| 20260830063051 | 64 | 159 | 0.0 | 2.0 | 0.00 | 0.32 | 0.00 | 99 | 1016.6 |
| 20260830061546 | 64 | 159 | 0.0 | 2.0 | 0.00 | 0.32 | 0.00 | 99 | 1016.9 |
| 20260830060045 | 64 | 159 | 0.0 | 2.0 | 0.00 | 0.32 | 0.00 | 99 | 1017.1 |
| 20260830054544 | 64 | 159 | 1.0 | 5.0 | 0.00 | 0.32 | 0.00 | 99 | 1017.2 |
| 20260830053043 | 64 | 151 | 0.0 | 7.0 | 0.00 | 0.32 | 0.00 | 99 | 1017.3 |
| 20260830051541 | 64 | 187 | 0.0 | 3.0 | 0.00 | 0.32 | 0.00 | 100 | 1017.3 |
| 20260830050047 | 64 | 165 | 0.0 | 3.0 | 0.00 | 0.32 | 0.00 | 100 | 1017.4 |
| 20260830044547 | 64 | 165 | 0.0 | 2.0 | 0.02 | 0.32 | 0.00 | 100 | 1017.5 |
| 20260830043037 | 64 | 173 | 0.0 | 3.0 | 0.02 | 0.32 | 0.00 | 100 | 1017.6 |
| 20260830041546 | 64 | 180 | 1.0 | 4.0 | 0.04 | 0.32 | 0.00 | 100 | 1017.6 |
| 20260830040034 | 64 | 192 | 1.0 | 3.0 | 0.10 | 0.32 | 0.32 | 100 | 1017.8 |
| 20260830034551 | 64 | 201 | 1.0 | 4.0 | 0.09 | 0.30 | 0.30 | 100 | 1017.8 |
| 20260830033034 | 64 | 204 | 0.0 | 3.0 | 0.17 | 0.30 | 0.30 | 99 | 1017.9 |
| 20260830031533 | 64 | 277 | 0.0 | 1.0 | 0.20 | 0.27 | 0.27 | 99 | 1017.9 |